| time (UTC) | temp F | wind direction | speed MPH | gust MPH | rain 1hr in | rain 24hr in | rain mn in | humidity % | barometer mb |
| 20260905225038 | 81 | 252 | 1.0 | 3.0 | 0.00 | 0.00 | 0.00 | 78 | 1013.2 |
| 20260905224600 | 81 | 0 | 0.0 | 2.0 | 0.00 | 0.00 | 0.00 | 78 | 1013.2 |
| 20260905224038 | 81 | 21 | 0.0 | 2.0 | 0.00 | 0.00 | 0.00 | 78 | 1013.2 |
| 20260905223538 | 81 | 109 | 0.0 | 2.0 | 0.00 | 0.00 | 0.00 | 77 | 1013.2 |
| 20260905223057 | 81 | 88 | 0.0 | 4.0 | 0.00 | 0.00 | 0.00 | 77 | 1013.3 |
| 20260905222541 | 81 | 0 | 0.0 | 8.0 | 0.00 | 0.00 | 0.00 | 76 | 1013.4 |
| 20260905222038 | 81 | 218 | 2.0 | 9.0 | 0.00 | 0.00 | 0.00 | 77 | 1013.4 |
| 20260905221557 | 81 | 236 | 5.0 | 9.0 | 0.00 | 0.00 | 0.00 | 77 | 1013.4 |
| 20260905221038 | 82 | 242 | 5.0 | 9.0 | 0.00 | 0.00 | 0.00 | 74 | 1013.5 |
| 20260905220538 | 82 | 235 | 6.0 | 8.0 | 0.00 | 0.00 | 0.00 | 71 | 1013.5 |
| 20260905220108 | 82 | 244 | 4.0 | 8.0 | 0.00 | 0.00 | 0.00 | 71 | 1013.4 |
| 20260905215538 | 82 | 292 | 2.0 | 6.0 | 0.00 | 0.00 | 0.00 | 72 | 1013.2 |
| 20260905215041 | 81 | 22 | 3.0 | 8.0 | 0.00 | 0.00 | 0.00 | 72 | 1013.1 |
| 20260905214557 | 80 | 360 | 3.0 | 8.0 | 0.00 | 0.00 | 0.00 | 73 | 1013.2 |
| 20260905214038 | 80 | 294 | 4.0 | 8.0 | 0.00 | 0.00 | 0.00 | 73 | 1013.3 |
| 20260905213539 | 80 | 290 | 3.0 | 9.0 | 0.00 | 0.00 | 0.00 | 73 | 1013.2 |
| 20260905213057 | 80 | 269 | 5.0 | 11.0 | 0.00 | 0.00 | 0.00 | 73 | 1013.4 |
| 20260905212539 | 80 | 355 | 5.0 | 11.0 | 0.00 | 0.00 | 0.00 | 71 | 1013.6 |
| 20260905212038 | 81 | 319 | 5.0 | 10.0 | 0.00 | 0.00 | 0.00 | 72 | 1013.7 |
| 20260905211558 | 81 | 12 | 3.0 | 6.0 | 0.00 | 0.00 | 0.00 | 72 | 1013.8 |
| 20260905211039 | 81 | 26 | 1.0 | 10.0 | 0.00 | 0.00 | 0.00 | 71 | 1013.9 |
| 20260905210538 | 81 | 0 | 4.0 | 10.0 | 0.00 | 0.00 | 0.00 | 69 | 1013.8 |
| 20260905210051 | 82 | 292 | 7.0 | 10.0 | 0.00 | 0.00 | 0.00 | 69 | 1013.8 |
| 20260905205539 | 83 | 305 | 5.0 | 14.0 | 0.00 | 0.00 | 0.00 | 70 | 1013.7 |
| 20260905205041 | 84 | 279 | 8.0 | 14.0 | 0.00 | 0.00 | 0.00 | 69 | 1013.5 |
| 20260905204557 | 86 | 255 | 3.0 | 4.0 | 0.00 | 0.00 | 0.00 | 69 | 1013.4 |
| 20260905204039 | 86 | 263 | 1.0 | 3.0 | 0.00 | 0.00 | 0.00 | 68 | 1013.3 |
| 20260905203541 | 87 | 0 | 0.0 | 3.0 | 0.00 | 0.00 | 0.00 | 68 | 1013.4 |
| 20260905203101 | 87 | 69 | 1.0 | 5.0 | 0.00 | 0.00 | 0.00 | 66 | 1013.5 |
| 20260905202539 | 87 | 128 | 1.0 | 5.0 | 0.00 | 0.00 | 0.00 | 63 | 1013.5 |
| 20260905202039 | 88 | 69 | 3.0 | 7.0 | 0.00 | 0.00 | 0.00 | 63 | 1013.5 |
| 20260905201555 | 88 | 20 | 3.0 | 11.0 | 0.00 | 0.00 | 0.00 | 60 | 1013.7 |
| 20260905201039 | 88 | 17 | 6.0 | 12.0 | 0.00 | 0.00 | 0.00 | 62 | 1013.7 |
| 20260905200539 | 89 | 48 | 7.0 | 14.0 | 0.00 | 0.00 | 0.00 | 61 | 1013.7 |
| 20260905200106 | 89 | 43 | 6.0 | 14.0 | 0.00 | 0.00 | 0.00 | 61 | 1013.8 |
| 20260905195538 | 89 | 26 | 8.0 | 14.0 | 0.00 | 0.00 | 0.00 | 60 | 1013.8 |
| 20260905195042 | 89 | 15 | 7.0 | 14.0 | 0.00 | 0.00 | 0.00 | 63 | 1013.7 |
| 20260905194557 | 89 | 0 | 3.0 | 14.0 | 0.00 | 0.00 | 0.00 | 62 | 1013.6 |
| 20260905194040 | 89 | 360 | 8.0 | 14.0 | 0.00 | 0.00 | 0.00 | 62 | 1013.5 |
| 20260905193539 | 89 | 19 | 7.0 | 12.0 | 0.00 | 0.00 | 0.00 | 63 | 1013.6 |
| 20260905193108 | 89 | 24 | 5.0 | 12.0 | 0.00 | 0.00 | 0.00 | 62 | 1013.6 |
| 20260905192539 | 89 | 24 | 4.0 | 11.0 | 0.00 | 0.00 | 0.00 | 62 | 1013.6 |
| 20260905192041 | 89 | 43 | 6.0 | 15.0 | 0.00 | 0.00 | 0.00 | 62 | 1013.6 |
| 20260905191554 | 90 | 24 | 6.0 | 15.0 | 0.00 | 0.00 | 0.00 | 61 | 1013.7 |
| 20260905191039 | 90 | 17 | 5.0 | 9.0 | 0.00 | 0.00 | 0.00 | 60 | 1013.8 |
| 20260905190538 | 89 | 352 | 2.0 | 9.0 | 0.00 | 0.00 | 0.00 | 60 | 1014.0 |
| 20260905185539 | 89 | 333 | 7.0 | 13.0 | 0.00 | 0.00 | 0.00 | 61 | 1014.1 |
| 20260905185038 | 89 | 5 | 1.0 | 6.0 | 0.00 | 0.00 | 0.00 | 60 | 1014.0 |
| 20260905184604 | 89 | 269 | 3.0 | 9.0 | 0.00 | 0.00 | 0.00 | 60 | 1013.9 |
| 20260905184039 | 89 | 313 | 4.0 | 9.0 | 0.00 | 0.00 | 0.00 | 59 | 1013.8 |
| 20260905183540 | 89 | 28 | 2.0 | 9.0 | 0.00 | 0.00 | 0.00 | 61 | 1013.9 |
| 20260905183059 | 89 | 68 | 3.0 | 12.0 | 0.00 | 0.00 | 0.00 | 61 | 1014.0 |
| 20260905182539 | 89 | 33 | 7.0 | 12.0 | 0.00 | 0.00 | 0.00 | 62 | 1014.2 |
| 20260905182039 | 89 | 42 | 5.0 | 11.0 | 0.00 | 0.00 | 0.00 | 62 | 1014.2 |
| 20260905181551 | 89 | 34 | 0.0 | 9.0 | 0.00 | 0.00 | 0.00 | 61 | 1014.2 |
| 20260905181039 | 89 | 324 | 4.0 | 10.0 | 0.00 | 0.00 | 0.00 | 61 | 1014.3 |
| 20260905180539 | 89 | 312 | 3.0 | 10.0 | 0.00 | 0.00 | 0.00 | 61 | 1014.3 |
| 20260905180100 | 89 | 308 | 4.0 | 9.0 | 0.00 | 0.00 | 0.00 | 63 | 1014.4 |
| 20260905175539 | 89 | 344 | 2.0 | 8.0 | 0.00 | 0.00 | 0.00 | 61 | 1014.5 |
| 20260905175039 | 89 | 182 | 2.0 | 8.0 | 0.00 | 0.00 | 0.00 | 62 | 1014.5 |
| 20260905174605 | 89 | 5 | 1.0 | 5.0 | 0.00 | 0.00 | 0.00 | 64 | 1014.5 |
| 20260905174042 | 88 | 55 | 0.0 | 9.0 | 0.00 | 0.00 | 0.00 | 66 | 1014.6 |
| 20260905173540 | 87 | 9 | 3.0 | 12.0 | 0.00 | 0.00 | 0.00 | 66 | 1014.6 |
| 20260905173055 | 88 | 339 | 4.0 | 12.0 | 0.00 | 0.00 | 0.00 | 66 | 1014.8 |
| 20260905172539 | 88 | 340 | 0.0 | 5.0 | 0.00 | 0.00 | 0.00 | 68 | 1014.8 |
| 20260905172039 | 87 | 144 | 2.0 | 5.0 | 0.00 | 0.00 | 0.00 | 68 | 1014.8 |
| 20260905171556 | 87 | 40 | 0.0 | 5.0 | 0.00 | 0.00 | 0.00 | 69 | 1014.9 |
| 20260905171039 | 87 | 295 | 3.0 | 6.0 | 0.00 | 0.00 | 0.00 | 70 | 1014.9 |
| 20260905170539 | 87 | 305 | 3.0 | 6.0 | 0.00 | 0.00 | 0.00 | 68 | 1015.0 |
| 20260905170050 | 87 | 274 | 1.0 | 6.0 | 0.00 | 0.00 | 0.00 | 68 | 1015.0 |
| 20260905165539 | 87 | 360 | 3.0 | 7.0 | 0.00 | 0.00 | 0.00 | 69 | 1015.1 |
| 20260905165038 | 86 | 332 | 2.0 | 7.0 | 0.00 | 0.00 | 0.00 | 69 | 1015.0 |
| 20260905164559 | 86 | 352 | 3.0 | 5.0 | 0.00 | 0.00 | 0.00 | 69 | 1015.1 |
| 20260905164039 | 86 | 0 | 1.0 | 5.0 | 0.00 | 0.00 | 0.00 | 71 | 1015.2 |
| 20260905163539 | 86 | 34 | 2.0 | 5.0 | 0.00 | 0.00 | 0.00 | 71 | 1015.4 |
| 20260905163103 | 85 | 215 | 3.0 | 5.0 | 0.00 | 0.00 | 0.00 | 73 | 1015.4 |
| 20260905162542 | 85 | 227 | 2.0 | 5.0 | 0.00 | 0.00 | 0.00 | 73 | 1015.4 |
| 20260905162039 | 85 | 205 | 3.0 | 5.0 | 0.00 | 0.00 | 0.00 | 74 | 1015.5 |
| 20260905161551 | 84 | 227 | 2.0 | 5.0 | 0.00 | 0.00 | 0.00 | 75 | 1015.7 |
| 20260905161039 | 84 | 239 | 4.0 | 5.0 | 0.00 | 0.00 | 0.00 | 74 | 1015.7 |
| 20260905160538 | 84 | 236 | 3.0 | 7.0 | 0.00 | 0.00 | 0.00 | 76 | 1015.7 |
| 20260905160120 | 84 | 232 | 3.0 | 7.0 | 0.00 | 0.00 | 0.00 | 76 | 1015.8 |
| 20260905155540 | 84 | 259 | 4.0 | 6.0 | 0.00 | 0.00 | 0.00 | 76 | 1015.8 |
| 20260905155041 | 84 | 200 | 1.0 | 3.0 | 0.00 | 0.00 | 0.00 | 77 | 1015.9 |
| 20260905154606 | 83 | 50 | 0.0 | 4.0 | 0.00 | 0.00 | 0.00 | 78 | 1016.0 |
| 20260905154042 | 82 | 0 | 1.0 | 4.0 | 0.00 | 0.00 | 0.00 | 79 | 1016.0 |
| 20260905153541 | 82 | 219 | 1.0 | 3.0 | 0.00 | 0.00 | 0.00 | 80 | 1016.0 |
| 20260905153102 | 81 | 252 | 1.0 | 3.0 | 0.00 | 0.00 | 0.00 | 80 | 1016.1 |
| 20260905152540 | 81 | 236 | 1.0 | 4.0 | 0.00 | 0.00 | 0.00 | 81 | 1016.0 |
| 20260905152041 | 81 | 238 | 2.0 | 4.0 | 0.00 | 0.00 | 0.00 | 81 | 1016.1 |
| 20260905151601 | 80 | 238 | 2.0 | 4.0 | 0.00 | 0.00 | 0.00 | 82 | 1016.1 |
| 20260905151040 | 80 | 229 | 3.0 | 4.0 | 0.00 | 0.00 | 0.00 | 82 | 1016.1 |
| 20260905150543 | 80 | 236 | 2.0 | 3.0 | 0.00 | 0.00 | 0.00 | 83 | 1016.3 |
| 20260905150112 | 79 | 229 | 2.0 | 4.0 | 0.00 | 0.00 | 0.00 | 83 | 1016.3 |
| 20260905145539 | 79 | 242 | 2.0 | 4.0 | 0.00 | 0.00 | 0.00 | 83 | 1016.3 |
| 20260905145042 | 78 | 259 | 2.0 | 4.0 | 0.00 | 0.00 | 0.00 | 83 | 1016.3 |
| 20260905144556 | 78 | 238 | 2.0 | 4.0 | 0.00 | 0.00 | 0.00 | 83 | 1016.3 |
| 20260905144041 | 78 | 251 | 3.0 | 5.0 | 0.00 | 0.00 | 0.00 | 83 | 1016.3 |
| 20260905143540 | 78 | 248 | 2.0 | 5.0 | 0.00 | 0.00 | 0.00 | 84 | 1016.3 |
| 20260905143056 | 78 | 263 | 3.0 | 5.0 | 0.00 | 0.00 | 0.00 | 84 | 1016.3 |
| 20260905142540 | 77 | 246 | 2.0 | 4.0 | 0.00 | 0.00 | 0.00 | 84 | 1016.5 |
| 20260905142040 | 77 | 257 | 2.0 | 4.0 | 0.00 | 0.00 | 0.00 | 84 | 1016.5 |
| 20260905141602 | 77 | 248 | 2.0 | 4.0 | 0.00 | 0.00 | 0.00 | 84 | 1016.5 |
| 20260905141040 | 77 | 242 | 2.0 | 4.0 | 0.00 | 0.00 | 0.00 | 84 | 1016.5 |
| 20260905140540 | 77 | 237 | 1.0 | 4.0 | 0.00 | 0.00 | 0.00 | 84 | 1016.5 |
| 20260905140100 | 76 | 234 | 1.0 | 4.0 | 0.00 | 0.00 | 0.00 | 84 | 1016.5 |
| 20260905135541 | 76 | 0 | 1.0 | 3.0 | 0.00 | 0.00 | 0.00 | 84 | 1016.7 |
| 20260905135040 | 76 | 323 | 1.0 | 3.0 | 0.00 | 0.00 | 0.00 | 84 | 1016.7 |
| 20260905134557 | 76 | 9 | 0.0 | 2.0 | 0.00 | 0.00 | 0.00 | 83 | 1016.8 |
| 20260905134040 | 75 | 0 | 0.0 | 2.0 | 0.00 | 0.00 | 0.00 | 83 | 1016.8 |
| 20260905133541 | 75 | 0 | 0.0 | 3.0 | 0.00 | 0.00 | 0.00 | 82 | 1016.7 |
| 20260905133053 | 75 | 88 | 1.0 | 3.0 | 0.00 | 0.00 | 0.00 | 82 | 1016.9 |
| 20260905132540 | 74 | 93 | 1.0 | 3.0 | 0.00 | 0.00 | 0.00 | 82 | 1016.8 |
| 20260905132042 | 74 | 34 | 2.0 | 3.0 | 0.00 | 0.00 | 0.00 | 81 | 1016.7 |
| 20260905131554 | 74 | 92 | 1.0 | 4.0 | 0.00 | 0.00 | 0.00 | 81 | 1016.8 |
| 20260905131040 | 73 | 44 | 1.0 | 4.0 | 0.00 | 0.00 | 0.00 | 81 | 1016.9 |
| 20260905130540 | 73 | 63 | 2.0 | 4.0 | 0.00 | 0.00 | 0.00 | 81 | 1016.9 |
| 20260905130047 | 73 | 67 | 0.0 | 3.0 | 0.00 | 0.00 | 0.00 | 81 | 1016.9 |
| 20260905125540 | 73 | 27 | 1.0 | 4.0 | 0.00 | 0.00 | 0.00 | 81 | 1016.9 |
| 20260905125040 | 72 | 34 | 1.0 | 4.0 | 0.00 | 0.00 | 0.00 | 81 | 1016.9 |
| 20260905124601 | 72 | 29 | 2.0 | 4.0 | 0.00 | 0.00 | 0.00 | 81 | 1016.9 |
| 20260905124040 | 72 | 26 | 2.0 | 4.0 | 0.00 | 0.00 | 0.00 | 81 | 1016.8 |
| 20260905123540 | 72 | 38 | 1.0 | 4.0 | 0.00 | 0.00 | 0.00 | 81 | 1016.7 |
| 20260905123056 | 72 | 0 | 2.0 | 4.0 | 0.00 | 0.00 | 0.00 | 81 | 1016.7 |
| 20260905122541 | 72 | 44 | 1.0 | 3.0 | 0.00 | 0.00 | 0.00 | 81 | 1016.7 |
| 20260905122041 | 72 | 19 | 2.0 | 3.0 | 0.00 | 0.00 | 0.00 | 81 | 1016.7 |
| 20260905121602 | 72 | 10 | 1.0 | 3.0 | 0.00 | 0.00 | 0.00 | 81 | 1016.7 |
| 20260905121042 | 72 | 42 | 1.0 | 4.0 | 0.00 | 0.00 | 0.00 | 81 | 1016.6 |
| 20260905120541 | 72 | 34 | 2.0 | 4.0 | 0.00 | 0.00 | 0.00 | 81 | 1016.6 |
| 20260905120056 | 72 | 20 | 2.0 | 4.0 | 0.00 | 0.00 | 0.00 | 81 | 1016.5 |
| 20260905115544 | 72 | 46 | 0.0 | 3.0 | 0.00 | 0.00 | 0.00 | 81 | 1016.5 |
| 20260905115040 | 72 | 46 | 1.0 | 3.0 | 0.00 | 0.00 | 0.00 | 81 | 1016.4 |
| 20260905114603 | 72 | 33 | 1.0 | 3.0 | 0.00 | 0.00 | 0.00 | 81 | 1016.4 |
| 20260905114041 | 72 | 0 | 1.0 | 3.0 | 0.00 | 0.00 | 0.00 | 81 | 1016.3 |
| 20260905113543 | 72 | 80 | 1.0 | 3.0 | 0.00 | 0.00 | 0.00 | 81 | 1016.3 |
| 20260905113119 | 72 | 46 | 0.0 | 2.0 | 0.00 | 0.00 | 0.00 | 81 | 1016.1 |
| 20260905112540 | 72 | 0 | 0.0 | 2.0 | 0.00 | 0.00 | 0.00 | 81 | 1016.1 |
| 20260905112042 | 72 | 46 | 1.0 | 2.0 | 0.00 | 0.00 | 0.00 | 81 | 1016.0 |
| 20260905111558 | 72 | 46 | 0.0 | 2.0 | 0.00 | 0.00 | 0.00 | 81 | 1015.8 |
| 20260905111041 | 72 | 0 | 1.0 | 2.0 | 0.00 | 0.00 | 0.00 | 81 | 1015.8 |
| 20260905110540 | 72 | 0 | 0.0 | 2.0 | 0.00 | 0.00 | 0.00 | 81 | 1015.8 |
| 20260905110055 | 72 | 0 | 0.0 | 2.0 | 0.00 | 0.00 | 0.00 | 81 | 1015.6 |
| 20260905105540 | 72 | 0 | 0.0 | 2.0 | 0.00 | 0.00 | 0.00 | 81 | 1015.6 |
| 20260905105044 | 72 | 0 | 0.0 | 2.0 | 0.00 | 0.00 | 0.00 | 81 | 1015.6 |
| 20260905104601 | 72 | 46 | 1.0 | 2.0 | 0.00 | 0.00 | 0.00 | 81 | 1015.7 |
| 20260905104040 | 72 | 82 | 0.0 | 2.0 | 0.00 | 0.00 | 0.00 | 81 | 1015.6 |
| 20260905103540 | 72 | 0 | 1.0 | 4.0 | 0.00 | 0.00 | 0.00 | 81 | 1015.6 |
| 20260905103103 | 72 | 45 | 2.0 | 4.0 | 0.00 | 0.00 | 0.00 | 81 | 1015.6 |
| 20260905102539 | 72 | 19 | 0.0 | 2.0 | 0.00 | 0.00 | 0.00 | 81 | 1015.6 |
| 20260905102042 | 72 | 0 | 1.0 | 2.0 | 0.00 | 0.00 | 0.00 | 81 | 1015.4 |
| 20260905101559 | 72 | 0 | 0.0 | 2.0 | 0.00 | 0.00 | 0.00 | 81 | 1015.4 |
| 20260905101040 | 72 | 0 | 0.0 | 3.0 | 0.00 | 0.00 | 0.00 | 81 | 1015.4 |
| 20260905100540 | 72 | 19 | 1.0 | 3.0 | 0.00 | 0.00 | 0.00 | 81 | 1015.4 |
| 20260905100105 | 72 | 0 | 0.0 | 3.0 | 0.00 | 0.00 | 0.00 | 81 | 1015.4 |
| 20260905095540 | 72 | 19 | 0.0 | 4.0 | 0.00 | 0.00 | 0.00 | 81 | 1015.4 |
| 20260905095040 | 72 | 19 | 1.0 | 4.0 | 0.00 | 0.00 | 0.00 | 82 | 1015.4 |
| 20260905094558 | 72 | 21 | 2.0 | 4.0 | 0.00 | 0.00 | 0.00 | 81 | 1015.4 |
| 20260905094044 | 72 | 0 | 1.0 | 2.0 | 0.00 | 0.00 | 0.00 | 81 | 1015.4 |
| 20260905093540 | 72 | 0 | 0.0 | 3.0 | 0.00 | 0.00 | 0.00 | 81 | 1015.5 |
| 20260905093054 | 72 | 29 | 0.0 | 4.0 | 0.00 | 0.00 | 0.00 | 81 | 1015.5 |
| 20260905092540 | 72 | 0 | 1.0 | 5.0 | 0.00 | 0.00 | 0.00 | 82 | 1015.4 |
| 20260905092040 | 72 | 39 | 3.0 | 5.0 | 0.00 | 0.00 | 0.00 | 82 | 1015.4 |
| 20260905091603 | 73 | 34 | 2.0 | 5.0 | 0.00 | 0.00 | 0.00 | 81 | 1015.4 |
| 20260905091042 | 73 | 15 | 2.0 | 5.0 | 0.00 | 0.00 | 0.00 | 81 | 1015.4 |
| 20260905090540 | 73 | 355 | 3.0 | 4.0 | 0.00 | 0.00 | 0.00 | 81 | 1015.4 |
| 20260905090056 | 73 | 17 | 2.0 | 4.0 | 0.00 | 0.00 | 0.00 | 81 | 1015.3 |
| 20260905085541 | 73 | 37 | 1.0 | 2.0 | 0.00 | 0.00 | 0.00 | 81 | 1015.3 |
| 20260905085040 | 73 | 37 | 0.0 | 2.0 | 0.00 | 0.00 | 0.00 | 81 | 1015.3 |
| 20260905084557 | 73 | 37 | 0.0 | 2.0 | 0.00 | 0.00 | 0.00 | 81 | 1015.4 |
| 20260905084044 | 73 | 0 | 0.0 | 2.0 | 0.00 | 0.00 | 0.00 | 82 | 1015.5 |
| 20260905083537 | 73 | 0 | 0.0 | 2.0 | 0.00 | 0.00 | 0.00 | 82 | 1015.5 |
| 20260905083052 | 73 | 0 | 0.0 | 1.0 | 0.00 | 0.00 | 0.00 | 82 | 1015.5 |
| 20260905082538 | 73 | 0 | 0.0 | 1.0 | 0.00 | 0.00 | 0.00 | 82 | 1015.6 |
| 20260905082042 | 73 | 0 | 0.0 | 3.0 | 0.00 | 0.00 | 0.00 | 82 | 1015.5 |
| 20260905081557 | 73 | 37 | 0.0 | 3.0 | 0.00 | 0.00 | 0.00 | 82 | 1015.6 |
| 20260905081038 | 73 | 37 | 2.0 | 3.0 | 0.00 | 0.00 | 0.00 | 82 | 1015.6 |
| 20260905080540 | 73 | 37 | 2.0 | 3.0 | 0.00 | 0.00 | 0.00 | 82 | 1015.5 |
| 20260905080056 | 73 | 37 | 0.0 | 2.0 | 0.00 | 0.00 | 0.00 | 82 | 1015.4 |
| 20260905075539 | 73 | 0 | 0.0 | 2.0 | 0.00 | 0.00 | 0.00 | 82 | 1015.4 |
| 20260905075042 | 73 | 0 | 1.0 | 2.0 | 0.00 | 0.00 | 0.00 | 82 | 1015.5 |
| 20260905074554 | 73 | 0 | 0.0 | 2.0 | 0.00 | 0.00 | 0.00 | 82 | 1015.6 |
| 20260905074043 | 73 | 69 | 1.0 | 2.0 | 0.00 | 0.00 | 0.00 | 82 | 1015.7 |
| 20260905073538 | 73 | 69 | 0.0 | 3.0 | 0.00 | 0.00 | 0.00 | 82 | 1015.7 |
| 20260905073104 | 73 | 0 | 0.0 | 3.0 | 0.00 | 0.00 | 0.00 | 82 | 1015.7 |
| 20260905072539 | 73 | 86 | 1.0 | 3.0 | 0.00 | 0.00 | 0.00 | 82 | 1015.7 |
| 20260905072038 | 73 | 49 | 1.0 | 3.0 | 0.00 | 0.00 | 0.00 | 82 | 1015.6 |
| 20260905071605 | 73 | 0 | 0.0 | 1.0 | 0.00 | 0.00 | 0.00 | 82 | 1015.8 |
| 20260905071042 | 73 | 0 | 0.0 | 3.0 | 0.00 | 0.00 | 0.00 | 82 | 1015.7 |
| 20260905070538 | 73 | 0 | 0.0 | 3.0 | 0.00 | 0.00 | 0.00 | 83 | 1015.7 |
| 20260905070058 | 73 | 122 | 1.0 | 3.0 | 0.00 | 0.00 | 0.00 | 83 | 1015.7 |
| 20260905065538 | 73 | 70 | 1.0 | 3.0 | 0.00 | 0.00 | 0.00 | 83 | 1015.6 |
| 20260905065038 | 73 | 34 | 1.0 | 2.0 | 0.00 | 0.00 | 0.00 | 83 | 1015.7 |
| 20260905064554 | 74 | 56 | 0.0 | 3.0 | 0.00 | 0.00 | 0.00 | 83 | 1015.7 |
| 20260905064039 | 74 | 0 | 0.0 | 3.0 | 0.00 | 0.00 | 0.00 | 82 | 1015.7 |
| 20260905063538 | 74 | 40 | 1.0 | 3.0 | 0.00 | 0.00 | 0.00 | 82 | 1015.8 |
| 20260905063059 | 74 | 71 | 0.0 | 2.0 | 0.00 | 0.00 | 0.00 | 83 | 1015.6 |
| 20260905062538 | 74 | 71 | 0.0 | 2.0 | 0.00 | 0.00 | 0.00 | 83 | 1015.8 |
| 20260905062038 | 74 | 0 | 0.0 | 2.0 | 0.00 | 0.00 | 0.00 | 83 | 1015.9 |
| 20260905061607 | 74 | 71 | 0.0 | 2.0 | 0.00 | 0.00 | 0.00 | 83 | 1015.8 |
| 20260905061040 | 74 | 0 | 0.0 | 2.0 | 0.00 | 0.00 | 0.00 | 83 | 1015.8 |
| 20260905060541 | 74 | 0 | 0.0 | 2.0 | 0.00 | 0.00 | 0.00 | 83 | 1016.0 |
| 20260905060112 | 74 | 0 | 0.0 | 5.0 | 0.00 | 0.00 | 0.00 | 83 | 1016.0 |
| 20260905055539 | 74 | 0 | 0.0 | 6.0 | 0.00 | 0.00 | 0.00 | 83 | 1016.0 |
| 20260905055039 | 74 | 71 | 2.0 | 6.0 | 0.00 | 0.00 | 0.00 | 83 | 1016.0 |
| 20260905054555 | 74 | 105 | 2.0 | 6.0 | 0.00 | 0.00 | 0.00 | 83 | 1015.8 |
| 20260905054040 | 75 | 0 | 1.0 | 4.0 | 0.00 | 0.00 | 0.00 | 83 | 1015.8 |
| 20260905053540 | 75 | 103 | 1.0 | 3.0 | 0.00 | 0.00 | 0.00 | 83 | 1015.8 |
| 20260905053058 | 75 | 111 | 1.0 | 2.0 | 0.00 | 0.00 | 0.00 | 83 | 1015.8 |
| 20260905052540 | 75 | 55 | 0.0 | 2.0 | 0.00 | 0.00 | 0.00 | 83 | 1015.9 |
| 20260905052042 | 75 | 0 | 0.0 | 1.0 | 0.00 | 0.00 | 0.00 | 83 | 1016.0 |
| 20260905051605 | 75 | 0 | 0.0 | 2.0 | 0.00 | 0.00 | 0.00 | 83 | 1015.9 |
| 20260905051040 | 76 | 55 | 0.0 | 2.0 | 0.00 | 0.00 | 0.00 | 82 | 1015.9 |
| 20260905050541 | 75 | 84 | 1.0 | 2.0 | 0.00 | 0.00 | 0.00 | 82 | 1016.0 |
| 20260905050058 | 75 | 122 | 0.0 | 2.0 | 0.00 | 0.00 | 0.00 | 82 | 1016.0 |
| 20260905045541 | 75 | 122 | 0.0 | 2.0 | 0.00 | 0.00 | 0.00 | 82 | 1015.9 |
| 20260905045041 | 75 | 0 | 0.0 | 2.0 | 0.00 | 0.00 | 0.00 | 83 | 1015.9 |
| 20260905044603 | 75 | 122 | 0.0 | 2.0 | 0.00 | 0.00 | 0.00 | 83 | 1016.0 |
| 20260905044043 | 75 | 85 | 0.0 | 2.0 | 0.00 | 0.00 | 0.00 | 83 | 1015.9 |
| 20260905043542 | 75 | 0 | 0.0 | 2.0 | 0.00 | 0.00 | 0.00 | 83 | 1015.9 |
| 20260905043101 | 75 | 85 | 0.0 | 2.0 | 0.00 | 0.00 | 0.00 | 83 | 1016.1 |
| 20260905042541 | 75 | 92 | 0.0 | 2.0 | 0.00 | 0.00 | 0.00 | 83 | 1016.2 |
| 20260905042042 | 75 | 92 | 0.0 | 2.0 | 0.00 | 0.00 | 0.00 | 83 | 1016.3 |
| 20260905041558 | 75 | 92 | 0.0 | 3.0 | 0.00 | 0.00 | 0.00 | 83 | 1016.3 |
| 20260905041042 | 75 | 5 | 1.0 | 4.0 | 0.00 | 0.00 | 0.00 | 83 | 1016.4 |
| 20260905040540 | 75 | 27 | 2.0 | 4.0 | 0.00 | 0.00 | 0.00 | 83 | 1016.5 |
| 20260905040105 | 76 | 34 | 1.0 | 3.0 | 0.00 | 0.00 | 0.00 | 83 | 1016.5 |
| 20260905035541 | 75 | 34 | 0.0 | 1.0 | 0.00 | 0.00 | 0.00 | 84 | 1016.5 |
| 20260905035041 | 76 | 34 | 0.0 | 2.0 | 0.00 | 0.00 | 0.00 | 84 | 1016.6 |
| 20260905034605 | 76 | 0 | 0.0 | 2.0 | 0.00 | 0.00 | 0.00 | 83 | 1016.7 |
| 20260905034040 | 76 | 0 | 1.0 | 4.0 | 0.00 | 0.00 | 0.00 | 83 | 1016.8 |
| 20260905033544 | 76 | 101 | 1.0 | 5.0 | 0.00 | 0.00 | 0.00 | 83 | 1016.9 |
| 20260905033101 | 76 | 34 | 3.0 | 5.0 | 0.00 | 0.00 | 0.00 | 84 | 1016.7 |
| 20260905032542 | 76 | 5 | 3.0 | 4.0 | 0.00 | 0.00 | 0.00 | 84 | 1016.7 |
| 20260905032041 | 76 | 67 | 0.0 | 4.0 | 0.00 | 0.00 | 0.00 | 84 | 1017.0 |
| 20260905031557 | 76 | 67 | 1.0 | 4.0 | 0.00 | 0.00 | 0.00 | 84 | 1017.0 |
| 20260905031040 | 76 | 43 | 2.0 | 4.0 | 0.00 | 0.00 | 0.00 | 84 | 1017.0 |
| 20260905030540 | 76 | 42 | 1.0 | 3.0 | 0.00 | 0.00 | 0.00 | 84 | 1016.9 |
| 20260905030108 | 76 | 0 | 0.0 | 3.0 | 0.00 | 0.00 | 0.00 | 84 | 1016.9 |
| 20260905025540 | 76 | 30 | 1.0 | 3.0 | 0.00 | 0.00 | 0.00 | 84 | 1017.0 |
| 20260905025042 | 77 | 30 | 2.0 | 3.0 | 0.00 | 0.00 | 0.00 | 84 | 1017.1 |
| 20260905024554 | 77 | 71 | 0.0 | 3.0 | 0.00 | 0.00 | 0.00 | 84 | 1017.2 |
| 20260905024041 | 77 | 71 | 1.0 | 3.0 | 0.00 | 0.00 | 0.00 | 84 | 1017.2 |
| 20260905023545 | 77 | 71 | 1.0 | 3.0 | 0.00 | 0.00 | 0.00 | 84 | 1017.3 |
| 20260905023105 | 77 | 0 | 0.0 | 2.0 | 0.00 | 0.00 | 0.00 | 84 | 1017.3 |
| 20260905022539 | 77 | 105 | 0.0 | 3.0 | 0.00 | 0.00 | 0.00 | 84 | 1017.3 |
| 20260905022043 | 77 | 105 | 0.0 | 3.0 | 0.00 | 0.00 | 0.00 | 84 | 1017.3 |
| 20260905021557 | 77 | 105 | 1.0 | 3.0 | 0.00 | 0.00 | 0.00 | 84 | 1017.2 |
| 20260905021040 | 78 | 35 | 1.0 | 3.0 | 0.00 | 0.00 | 0.00 | 84 | 1017.2 |
| 20260905020540 | 78 | 35 | 1.0 | 3.0 | 0.00 | 0.00 | 0.00 | 84 | 1017.0 |
| 20260905020108 | 78 | 35 | 2.0 | 3.0 | 0.00 | 0.00 | 0.00 | 84 | 1017.1 |
| 20260905015540 | 78 | 67 | 0.0 | 1.0 | 0.00 | 0.00 | 0.00 | 84 | 1017.1 |
| 20260905015041 | 78 | 0 | 0.0 | 2.0 | 0.00 | 0.00 | 0.00 | 84 | 1017.1 |
| 20260905014555 | 78 | 0 | 0.0 | 2.0 | 0.00 | 0.00 | 0.00 | 84 | 1017.2 |
| 20260905014043 | 78 | 67 | 0.0 | 4.0 | 0.00 | 0.00 | 0.00 | 84 | 1017.2 |
| 20260905013540 | 78 | 0 | 0.0 | 4.0 | 0.00 | 0.00 | 0.00 | 84 | 1017.2 |
| 20260905013053 | 78 | 51 | 1.0 | 3.0 | 0.00 | 0.00 | 0.00 | 84 | 1017.2 |
| 20260905012540 | 79 | 50 | 1.0 | 3.0 | 0.00 | 0.00 | 0.00 | 83 | 1017.2 |
| 20260905012040 | 79 | 101 | 0.0 | 3.0 | 0.00 | 0.00 | 0.00 | 83 | 1017.2 |
| 20260905011625 | 79 | 0 | 1.0 | 3.0 | 0.00 | 0.00 | 0.00 | 83 | 1017.1 |
| 20260905011040 | 79 | 78 | 0.0 | 3.0 | 0.00 | 0.00 | 0.00 | 83 | 1017.0 |
| 20260905010544 | 79 | 0 | 1.0 | 3.0 | 0.00 | 0.00 | 0.00 | 83 | 1016.9 |
| 20260905010055 | 80 | 0 | 1.0 | 2.0 | 0.00 | 0.00 | 0.00 | 83 | 1016.9 |
| 20260905005541 | 80 | 71 | 1.0 | 3.0 | 0.00 | 0.00 | 0.00 | 82 | 1016.7 |
| 20260905005040 | 80 | 61 | 0.0 | 3.0 | 0.00 | 0.00 | 0.00 | 82 | 1016.6 |
| 20260905004557 | 80 | 0 | 1.0 | 3.0 | 0.00 | 0.00 | 0.00 | 82 | 1016.5 |
| 20260905004040 | 80 | 67 | 1.0 | 3.0 | 0.00 | 0.00 | 0.00 | 82 | 1016.6 |
| 20260905003540 | 81 | 85 | 0.0 | 2.0 | 0.00 | 0.00 | 0.00 | 82 | 1016.5 |
| 20260905003052 | 81 | 0 | 0.0 | 2.0 | 0.00 | 0.00 | 0.00 | 81 | 1016.6 |
| 20260905002539 | 81 | 85 | 1.0 | 2.0 | 0.00 | 0.00 | 0.00 | 82 | 1016.6 |
| 20260905002040 | 81 | 0 | 0.0 | 1.0 | 0.00 | 0.00 | 0.00 | 81 | 1016.6 |
| 20260905001602 | 81 | 0 | 0.0 | 2.0 | 0.00 | 0.00 | 0.00 | 81 | 1016.4 |
| 20260905001038 | 81 | 0 | 0.0 | 3.0 | 0.00 | 0.00 | 0.00 | 81 | 1016.5 |
| 20260905000539 | 81 | 21 | 0.0 | 3.0 | 0.00 | 0.00 | 0.00 | 81 | 1016.3 |
| 20260905000058 | 81 | 44 | 0.0 | 4.0 | 0.00 | 0.00 | 0.00 | 80 | 1016.3 |
| 20260904235540 | 82 | 0 | 0.0 | 4.0 | 0.00 | 0.00 | 0.00 | 80 | 1016.4 |
| 20260904235042 | 82 | 71 | 2.0 | 5.0 | 0.00 | 0.00 | 0.00 | 80 | 1016.3 |
| 20260904234557 | 82 | 44 | 1.0 | 5.0 | 0.00 | 0.00 | 0.00 | 80 | 1016.3 |
| 20260904234039 | 82 | 29 | 2.0 | 7.0 | 0.00 | 0.00 | 0.00 | 80 | 1016.1 |
| 20260904233539 | 83 | 0 | 1.0 | 8.0 | 0.00 | 0.00 | 0.00 | 80 | 1016.1 |
| 20260904233049 | 83 | 43 | 4.0 | 8.0 | 0.00 | 0.00 | 0.00 | 80 | 1016.1 |
| 20260904232538 | 83 | 20 | 2.0 | 4.0 | 0.00 | 0.00 | 0.00 | 79 | 1016.1 |
| 20260904232038 | 84 | 5 | 2.0 | 4.0 | 0.00 | 0.00 | 0.00 | 79 | 1015.9 |
| 20260904231548 | 84 | 21 | 0.0 | 3.0 | 0.00 | 0.00 | 0.00 | 78 | 1015.9 |
| 20260904231037 | 83 | 70 | 0.0 | 3.0 | 0.00 | 0.00 | 0.00 | 78 | 1015.9 |
| 20260904230540 | 83 | 52 | 2.0 | 3.0 | 0.00 | 0.00 | 0.00 | 78 | 1015.7 |
| 20260904230058 | 83 | 88 | 1.0 | 3.0 | 0.00 | 0.00 | 0.00 | 78 | 1015.8 |
| 20260904225539 | 83 | 29 | 0.0 | 4.0 | 0.00 | 0.00 | 0.00 | 80 | 1015.9 |